Location: ???????????
(54.5822°N, 39.1075°E)
Time: 13:57:39
(UTC+00:00)

Meteor 2-10 Rocket - Pass Details

Date: 19 May 2025
Orbit: 733 x 881 km, 81.2° (Epoch: 20 June)

Event Time Altitude Azimuth Distance (km) Brightness Sun altitude
Rises 21:17:50 0° 346° (NNW) 3,431 8.5 -15.4°
Reaches altitude 10° 21:20:15 10° 348° (NNW) 2,508 7.5 -15.4°
Maximum altitude 21:25:59 74° 74° (ENE) 912 3.9 -15.4°
Enters shadow 21:30:07 20° 157° (SSE) 1,915 5.0 -15.4°
